Vorticity
nan nan nan nan nan nan nan nan nan nan nan nan nan nan nan nan nan nan nan nan nan nan nan nan nan nan nan nan nan nan nan nan nan nan nan nan nan nan nan nan nan nan nan nan nan nan nan nan nan
nan 7 7 9 7 4 6 9 8 4 1 7 11 7 8 5 7 13 8 12 10 4 6 9 9 5 6 6 5 4 5 5 5 5 4 5 6 5 4 5 4 4 5 6 7 6 5 4 nan
nan 7 8 8 5 4 7 8 5 3 7 11 10 8 7 6 10 8 7 13 6 5 6 11 9 7 5 5 6 5 4 5 4 5 5 5 5 5 7 5 4 4 5 6 6 5 3 3 nan
nan 5 7 9 5 4 8 7 3 6 9 6 6 4 6 11 11 9 14 8 3 5 9 11 7 6 6 6 4 5 6 4 5 5 6 5 5 5 7 6 4 4 5 6 6 4 3 3 nan
nan 10 7 5 5 5 7 5 5 6 6 2 9 10 4 7 16 14 8 6 5 3 7 11 9 6 6 5 4 6 7 9 8 7 6 4 5 6 6 6 6 4 4 5 6 4 3 3 nan
nan 8 11 8 1 4 4 7 5 6 5 7 6 10 7 11 13 8 6 6 5 3 5 9 8 7 6 5 5 8 7 10 8 6 6 7 6 7 6 6 6 4 4 4 5 5 4 4 nan
nan 7 9 11 7 4 8 7 7 6 4 6 6 9 8 10 7 10 8 6 5 4 4 7 7 7 6 6 9 8 7 5 4 5 4 5 7 10 8 7 6 4 4 4 5 5 5 5 nan
nan 8 6 7 13 6 9 6 7 5 6 6 9 4 8 10 10 10 8 6 7 7 6 4 5 6 6 8 9 6 4 4 5 5 5 3 5 8 10 8 7 7 5 5 5 5 6 6 nan
nan 8 8 6 6 8 9 5 4 5 6 9 8 7 12 13 11 6 5 6 9 7 6 3 3 5 7 8 7 7 5 4 3 5 4 2 6 8 6 6 9 8 6 5 4 4 5 5 nan
nan 6 9 9 8 9 9 9 6 6 1 7 5 2 16 18 6 6 4 5 7 6 5 6 4 4 6 6 6 5 5 5 5 6 5 6 7 7 8 10 10 5 5 4 4 5 5 5 nan
nan 8 8 10 9 10 6 8 8 6 3 10 4 1 8 11 10 6 5 6 7 6 5 8 4 5 6 5 5 6 7 7 8 7 6 6 5 6 7 8 7 7 6 5 6 5 5 5 nan
nan 8 3 8 10 9 9 5 7 6 11 5 3 7 5 9 12 9 7 7 7 7 5 4 6 5 5 7 8 7 7 7 8 8 7 6 6 6 6 6 7 6 6 7 5 5 6 6 nan
nan 4 5 5 10 6 9 5 9 4 6 5 4 5 5 10 15 16 10 5 9 10 5 5 5 6 6 6 7 7 7 7 7 8 6 6 7 7 6 6 6 6 7 7 6 6 6 6 nan
nan 3 7 6 7 8 6 8 4 8 9 1 2 5 5 9 16 11 12 11 6 8 10 7 7 7 6 6 8 7 7 8 7 7 8 7 6 7 7 7 7 7 7 7 7 7 7 7 nan
nan 14 3 8 10 7 7 6 6 8 11 8 1 -1 5 7 17 11 9 11 8 6 10 9 6 6 7 6 6 8 8 7 7 8 9 7 6 7 7 7 7 8 8 7 7 7 7 7 nan
nan 11 10 9 7 9 9 6 9 10 9 11 4 -3 3 8 12 12 9 9 9 9 8 8 8 7 6 6 6 7 8 7 7 8 9 8 7 7 6 7 7 9 8 8 8 7 8 8 nan
nan 11 7 8 5 9 6 9 12 9 7 14 10 0 0 9 10 12 9 8 9 9 7 7 9 9 7 7 8 9 7 6 8 7 9 9 8 7 6 7 8 8 8 7 8 7 8 8 nan
nan 9 13 5 5 8 7 3 14 14 6 9 5 6 2 10 7 10 11 9 8 8 7 8 8 8 7 7 8 8 8 8 9 8 8 8 8 8 6 7 9 8 7 7 8 9 7 7 nan
nan 6 8 9 10 10 9 6 7 12 7 8 4 4 7 5 6 7 11 12 7 8 9 9 7 7 6 7 8 9 9 8 9 10 9 9 9 9 7 7 8 8 8 8 7 9 8 8 nan
nan 0 1 9 10 11 12 7 9 9 11 10 8 5 5 2 7 7 5 10 12 9 8 8 9 9 6 6 8 10 10 8 9 10 10 8 9 9 9 8 9 7 8 9 8 6 8 10 nan
nan 4 3 10 6 7 9 8 11 7 8 10 11 12 9 7 5 7 11 8 10 10 11 11 11 9 8 7 6 7 8 9 9 9 11 12 10 8 8 8 8 8 8 7 8 9 7 8 nan
nan 11 8 8 9 8 5 10 11 12 6 6 8 11 12 7 8 10 10 10 11 10 10 12 13 11 10 10 7 7 6 7 8 9 9 11 10 8 8 8 8 7 8 9 9 9 8 8 nan
nan 14 6 6 8 8 7 12 10 14 15 10 7 8 10 11 9 10 10 10 10 11 9 8 9 9 12 12 11 10 7 7 8 9 9 9 10 10 9 9 8 8 8 10 10 8 9 7 nan
nan 5 5 10 6 9 13 6 8 11 9 14 14 12 11 8 7 9 10 9 8 9 10 9 7 7 10 10 12 13 11 9 7 8 9 9 10 11 11 9 9 9 9 9 9 9 9 8 nan
nan 5 7 8 8 9 11 7 7 8 11 7 8 10 11 11 12 10 7 6 8 8 8 8 7 7 8 9 9 11 13 13 11 10 10 9 10 9 10 12 10 9 10 10 10 10 10 11 nan
nan 7 10 11 9 9 8 8 8 8 7 9 9 8 9 13 13 12 8 8 8 7 7 8 8 8 8 8 8 9 11 13 12 12 12 11 10 9 11 14 16 14 12 11 10 10 10 11 nan
nan 10 9 5 9 12 6 5 12 13 10 10 9 11 12 14 13 10 8 9 9 9 9 8 7 7 8 9 8 8 8 10 10 11 12 10 10 10 11 12 12 12 13 13 12 10 10 9 nan
nan 8 5 9 11 7 9 11 11 6 11 10 13 12 13 12 10 9 10 8 8 9 8 8 9 9 8 8 9 9 9 9 9 9 9 10 10 10 10 10 9 10 10 11 11 10 10 10 nan
nan 7 9 12 9 10 10 10 12 6 6 10 14 15 12 10 9 8 8 8 8 8 9 8 8 8 8 8 9 9 9 9 10 9 8 9 10 10 10 10 10 10 10 10 10 11 10 9 nan
nan nan nan nan nan nan nan nan nan nan nan nan nan nan nan nan nan nan nan nan nan nan nan nan nan nan nan nan nan nan nan nan nan nan nan nan nan nan nan nan nan nan nan nan nan nan nan nan nan
CAPE
139 0 0 0 0 0 0 0 0 0 0 0 0 0 0 0 0 0 28 442 933 1451 1859 2080 2451 2208 2279 2258 2043 1905 1743 1586 1299 656 519 436 289 50 62 2 1 2 1 0 0 0 0 2 1
77 11 0 0 0 0 0 0 0 0 0 0 0 0 26 49 223 384 644 856 1206 1618 1873 2034 2393 2305 2451 2295 1992 1874 1650 1409 1318 883 691 546 558 158 168 2 0 1 0 0 0 0 1 0 0
128 11 0 0 0 0 0 0 0 0 0 0 0 0 13 106 549 472 560 1156 1512 1583 1811 1994 2379 2520 2457 2224 1975 1886 1753 1595 1392 1052 604 236 205 262 373 61 0 0 0 0 0 0 2 1 0
53 12 0 0 0 0 0 0 0 0 0 0 0 0 42 68 567 564 1259 1335 1386 1492 1623 2088 2325 2457 2335 2227 2101 1931 1702 1293 949 815 565 342 44 3 144 363 249 12 0 0 0 0 0 0 0
0 7 17 0 0 0 0 0 0 0 0 0 0 0 266 140 579 1283 1491 1353 1243 1348 1574 1906 2291 2341 2278 2201 2104 1975 1753 1425 1018 697 532 91 0 0 42 383 197 0 0 0 0 0 0 0 0
44 3 9 0 0 0 0 0 0 0 0 0 0 0 166 560 979 1232 1357 1281 1140 1359 1508 1826 1993 2074 2121 2078 1984 1847 1649 1308 1211 500 111 30 0 0 0 229 135 38 0 0 0 0 0 0 0
9 0 0 0 0 0 0 0 0 0 0 0 0 18 77 641 1123 1232 1207 988 970 1330 1387 1620 1648 1747 1860 1843 1748 1424 824 525 388 169 106 46 38 38 1 194 288 87 62 47 0 0 0 0 0
0 0 0 0 0 0 0 0 0 0 0 0 0 0 0 72 1149 1047 1072 989 1006 1280 1372 1450 1416 1444 1350 1290 1047 655 388 229 153 64 25 16 31 56 153 144 408 289 232 141 68 22 0 0 0
0 6 6 0 0 0 0 0 0 0 0 0 0 0 13 124 877 1046 1163 1087 1091 1001 1055 1171 1227 1071 958 790 603 239 80 48 33 15 0 0 0 5 46 98 237 189 220 142 77 57 37 0 0
64 8 0 0 0 0 0 0 0 0 0 0 0 0 201 1148 1058 784 1085 983 760 819 1036 1087 1105 991 813 790 334 51 30 9 0 0 0 0 0 0 10 33 155 171 136 97 69 44 38 0 0
40 2 0 0 0 0 0 2 14 0 0 0 0 0 0 10 226 596 923 1075 660 607 774 1056 956 825 763 611 117 35 7 0 0 0 0 0 0 0 1 15 51 47 45 29 40 29 3 0 0
46 25 1 0 0 0 0 0 8 0 0 0 0 0 0 0 0 377 788 769 594 935 632 893 927 794 559 240 105 38 6 0 0 0 0 0 0 0 0 3 8 11 8 2 0 0 0 0 0
53 43 14 0 0 0 0 0 0 0 0 0 0 0 0 0 0 252 644 638 626 800 712 740 782 542 259 106 54 31 17 9 0 0 0 0 0 0 0 0 0 0 0 0 0 0 0 0 0
4 33 23 8 2 1 0 0 0 0 0 0 0 0 0 0 38 135 304 436 297 439 574 635 548 463 150 88 44 46 25 20 1 0 0 0 0 0 0 0 0 0 0 0 0 0 0 0 0
27 12 24 8 1 0 0 0 0 0 0 0 0 0 0 0 5 229 483 478 459 485 404 409 444 288 176 104 35 26 25 17 2 0 0 0 0 0 0 0 0 0 0 0 0 0 0 0 0
49 20 3 16 0 0 0 0 0 0 0 0 0 0 0 0 0 112 284 449 452 448 455 362 557 247 212 114 34 20 14 10 3 0 0 0 0 0 0 0 0 0 0 0 0 0 0 0 0
15 31 6 5 1 0 0 0 0 0 0 0 0 0 0 0 0 0 229 393 394 317 350 373 366 209 112 116 37 12 1 0 0 0 0 0 0 0 0 0 0 0 0 0 0 0 0 0 0
6 4 13 5 0 0 0 0 0 0 0 0 0 0 0 0 0 0 0 124 218 198 233 304 272 307 68 32 17 11 0 0 0 0 0 0 0 0 0 0 0 0 0 0 0 0 0 0 0
0 0 0 0 0 0 0 0 0 0 0 0 0 0 0 0 0 0 0 0 40 84 168 251 310 306 197 74 45 51 126 64 0 0 0 0 0 0 0 0 0 0 0 0 0 0 0 0 0
0 0 0 0 0 0 0 0 0 0 0 0 0 0 0 0 0 0 0 0 0 21 90 144 211 203 239 184 85 81 63 76 95 20 0 0 0 0 0 0 0 0 0 0 0 0 0 0 0
0 0 0 0 0 0 0 0 0 0 0 0 0 0 0 0 0 0 0 0 0 0 0 2 94 190 167 128 73 43 29 17 32 59 55 0 0 0 0 0 0 0 0 0 0 0 0 0 0
0 0 0 0 0 0 0 1 0 0 0 0 0 0 0 0 0 0 0 0 0 0 0 0 0 0 0 25 110 106 166 178 80 29 7 0 0 0 0 0 0 0 0 0 0 0 0 0 0
0 0 0 0 0 0 0 0 0 0 0 0 0 0 0 0 0 0 0 0 0 0 0 0 0 0 0 0 0 0 62 44 0 0 0 0 0 0 0 0 0 0 0 0 0 0 0 0 0
0 6 5 1 0 0 0 0 0 0 0 0 0 0 0 0 0 0 0 0 0 0 0 0 0 0 0 0 0 0 0 0 0 0 0 0 0 0 0 0 0 0 0 0 0 0 0 0 0
2 3 19 37 12 0 0 0 0 0 0 0 0 0 0 0 0 0 0 0 0 0 0 0 0 0 0 0 0 0 0 0 0 0 0 0 0 0 0 0 0 0 0 0 0 0 0 0 0
1 0 0 0 0 0 0 0 0 0 0 0 0 0 0 0 0 0 0 0 0 0 0 0 0 0 0 0 0 0 0 0 0 0 0 0 0 0 0 0 0 0 0 0 0 0 1 0 0
3 0 0 0 0 0 0 0 0 0 0 0 0 0 0 0 0 0 0 0 0 0 0 0 0 0 0 0 0 0 0 0 0 0 0 0 0 0 0 0 0 0 0 0 0 0 0 0 0
0 0 0 0 0 0 0 0 0 0 0 0 0 0 0 0 0 0 0 0 0 0 0 0 0 0 0 0 0 0 0 0 0 0 0 0 0 0 0 0 0 0 0 0 0 0 0 0 0
1 0 0 0 0 0 0 0 0 0 0 0 0 0 0 0 0 0 0 0 0 0 0 0 0 0 0 0 0 0 0 0 0 0 0 0 0 0 0 0 0 0 0 0 0 0 0 0 0
0 0 0 0 0 0 0 0 0 0 0 0 0 0 0 0 0 0 0 0 0 0 0 0 0 0 0 0 0 0 0 0 0 0 0 0 0 0 0 0 0 0 0 0 0 0 0 0 0